Find Starlink 31451

NORAD ID: 59366 Int'l Des: 2024-060 Owner: SPXS Country: US Constellation: starlink operational
LEOCIRCULAR

Current View

Loading 3D Globe...

About Starlink 31451

Starlink 31451 (NORAD 59366) is a starlink constellation satellite (v2 mini) launched Mar 31, 2024 by SPXS of US. It operates in LEO, CIRCULAR orbit with a mass of 730.00 kg.

Upcoming Passes

Passes for default location (London). Set your location on the main map for personalized predictions.

Altitude History

Loading altitude history...

Two-Line Element Set

1 59366U 24060U 26235.79720169 .00006104 00000-0 23096-3 0 9994
2 59366 42.9988 35.7888 0001898 298.8268 61.2393 15.27609822135622
Epoch: Aug 23, 2026 • Age: 14 hours

Current Status

Altitude 486.8 km
Apogee / Perigee N/A
Velocity 7.63 km/s
Sub-Earth Point 42.13°N, 9.59°W
Launch Date Mar 31, 2024
Age 2.3 years
Type internet

Technical Details

Classification Payload
Mass 730.00 kg
Dry Mass 700.00 kg
Total Mass 730.00 kg
Length 0.30 m
Diameter 4.10 m
Span 29.00 m
Shape Box + pan
Manufacturer SPXS
Bus Type Starlink V2M
Phase Status In Orbit
Owner/State SPXS/US

Most Searched